Regional Weather Roundup
Issued by NWS

Home | Current Version | Previous Version | Graphics & Text | Print | Product List | Glossary On
Versions: 1 2 3 4 5 6 7 8 9 10 11 12 13 14 15 16 17 18 19 20 21 22 23 24 25 26 27 28 29 30 31 32 33 34 35 36 37 38 39 40 41 42 43 44 45 46 47 48 49 50
000
ASUS45 KTFX 310404
RWRMT
MONTANA HOURLY WEATHER ROUNDUP
NATIONAL WEATHER SERVICE GREAT FALLS MT
1004 PM MDT WED JUL 30 2014

NOTE: "FAIR" INDICATES FEW OR NO CLOUDS BELOW 12000 FEET WITH NO
SIGNIFICANT WEATHER AND/OR OBSTRUCTIONS TO VISIBILITY.

* THESE STATIONS ARE NOT UNDER NWS QUALITY CONTROL. THEY DO NOT
   REPORT WEATHER SUCH AS PRECIPITATION OR FOG.

MTZ001>007-043-310500-
WEST OF THE DIVIDE
CITY           SKY/WX    TMP DP  RH WIND       PRES   REMARKS
KALISPELL      MOCLDY    79  45  30 NE17G33   30.11R
MISSOULA       PTCLDY    81  45  28 SE8       30.11R
BUTTE          CLOUDY    68  43  40 S12       30.31R
MULLAN PASS    CLEAR     70  39  32 NW5       30.31R
* ESSEX        N/A       70  52  53 E2         N/A
* LINCOLN      N/A       70  43  38 SE4G22     N/A
* LOOKOUT PASS N/A       69  47  46 N1         N/A
* POLSON       N/A       73  44  35 NE1        N/A
* RONAN APT    CLOUDY    72  57  59 N/A        N/A
* SEELEY LAKE  N/A       74  41  31 E2G8       N/A
* THOMP F APT  CLEAR     62  41  46 N11G19     N/A
* YAAK HILL    N/A       79  48  34 SE1        N/A
$$

MTZ008-052>055-310500-
SOUTHWEST MONTANA
CITY           SKY/WX    TMP DP  RH WIND       PRES   REMARKS
BOZEMAN        CLOUDY    72  45  38 CALM      30.21R
DILLON         CLOUDY    64  45  50 VRB3      30.28R
W YELLOWSTONE  CLOUDY    63  43  48 SW6       30.38R
* THREE FORKS  CLOUDY    72  55  55 N/A        N/A
* BOULDER HILL N/A       68  38  33 N4G10      N/A
* MONIDA PASS  N/A       58  44  60 S9         N/A
* RAYNOLDS PAS N/A       60  48  65 SW4        N/A
* WHITEHALL    N/A       75  40  28 SW4G16     N/A
* WISE RIVER   N/A       65  43  45 SE10G17    N/A
$$

MTZ009>010-012-014-046-048-049-054-310500-
EAST SLOPES AND CENTRAL MONTANA
CITY           SKY/WX    TMP DP  RH WIND       PRES   REMARKS
CUT BANK       MOCLDY    72  43  35 NW13      30.15R
GREAT FALLS    CLOUDY    75  39  27 SW8       30.11R
HELENA         CLOUDY    79  45  30 W8        30.17R
MALMSTROM AFB  CLOUDY    82  41  23 SW6       30.12R
* CONRAD       PTCLDY    64  48  56 N/A        N/A
* DEARBORN     N/A       71  57  61 W1G6       N/A
* EAST GLACIER N/A       67  50  55 NW6        N/A
* MONARCH      N/A       70  38  31 W4G9       N/A
* PENDROY      N/A       67  46  47 W2         N/A
* ROGERS PASS  N/A       65  42  43 NW3        N/A
* SAINT MARY   N/A       70  41  35 S5G17      N/A
* SWEET GRASS  N/A       76  47  36 N8         N/A
$$

MTZ011-013-016-021-035-040-045-047-050-051-310500-
NORTH CENTRAL MONTANA
CITY           SKY/WX    TMP DP  RH WIND       PRES   REMARKS
HAVRE          MOCLDY    82  39  22 N/A       30.04R
LEWISTOWN      MOCLDY    72  43  35 W6        30.18R
* CHESTER      N/A       77  41  28 NE1        N/A
* DENTON       N/A       78  42  28 S9         N/A
* GEYSER       N/A       78  42  28 S17G28     N/A
* JUDITH GAP   N/A       68  40  36 SE2        N/A
* LOMA         N/A       83  42  23 W4         N/A
$$

MTZ017>020-022>027-061-062-310500-
NORTHEAST MONTANA
CITY           SKY/WX    TMP DP  RH WIND       PRES   REMARKS
GLASGOW        PTCLDY    73  50  44 SE12      30.05S
GLENDIVE       CLEAR     73  48  41 E6        30.15S
JORDAN         CLEAR     73  39  29 CALM      30.10R
SIDNEY         CLEAR     70  48  46 CALM      30.13R
WOLF POINT     PTCLDY    77  48  36 SE5       30.08R
* BEAVER HILL  N/A       67  50  55 E2         N/A
* CIRCLE       N/A       74  52  46 N/A        N/A
* LINDSAY DVD  N/A       68  51  55 E2         N/A
$$

MTZ028>042-056>058-310500-
SOUTHCENTRAL AND SOUTHEAST MONTANA
CITY           SKY/WX    TMP DP  RH WIND       PRES   REMARKS
BAKER          CLEAR     64  52  65 SE3       30.18R
BILLINGS       PTCLDY    81  37  21 SE8       30.15R
LIVINGSTON     CLOUDY    70  34  27 S7        30.20R
MILES CITY     CLEAR     77  45  32 SE5       30.13R
* LAUREL APT   PTCLDY    75  39  27 N/A        N/A
* ROUNDUP APT  PTCLDY    81  36  20 N/A        N/A
* ALZADA       N/A       69  48  47 NE6        N/A
* HYSHAM       N/A       74  39  28 SE2        N/A
* LAME DEER    N/A       75  36  24 E4         N/A
* REED POINT   N/A       71  43  37 SW1        N/A
* ROSCOE HILL  N/A       68  31  25 SW6        N/A
$$

REGIONAL REPORTS...DAKOTAS
CITY           SKY/WX    TMP DP  RH WIND       PRES   REMARKS
WILLISTON      CLEAR     70  52  53 E5        30.12S
DICKINSON      CLEAR     63  54  73 E5        30.14R
CROSBY         TSTM      63  57  81 S7        30.11F
TIOGA          FAIR      57  57 100 SE7       30.16F
WATFORD CITY   CLEAR     64  55  73 SE9       30.12R
BISMARCK       PTCLDY    64  57  78 CALM      30.11R
GRAND FORKS    CLEAR     63  57  81 W3        30.04S
FARGO          CLEAR     66  57  73 CALM      30.05R
BUFFALO SD     CLEAR     73  52  48 CALM      30.12R
RAPID CITY     MOCLDY    64  50  61 NW10      30.17R
$$

REGIONAL REPORTS...WYOMING/IDAHO/WASHINGTON
CITY           SKY/WX    TMP DP  RH WIND       PRES   REMARKS
GILLETTE       CLOUDY    64  45  50 CALM      30.24R
SHERIDAN       MOCLDY    63  45  52 S5        30.22R
YELLOWSTONE LA MOCLDY    52  45  77 CALM      30.47R
SALMON         CLOUDY    72  50  46 CALM      30.17R
MULLAN PASS    CLEAR     70  39  32 NW5       30.31S
SAND POINT     CLEAR     68  55  63 CALM      30.00R
SPOKANE        PTCLDY    84  36  18 W10       30.01R

$$



USA.gov is the U.S. government's official web portal to all federal, state and local government web resources and services.